Location: Lane
(33.5226°N, 79.8788°W)
Time: 06:39:56
(UTC+00:00)

Vanguard 2 - Pass Details

Date: 05 October 2022
Orbit: 553 x 2933 km, 32.9° (Epoch: 26 November)

Event Time Altitude Azimuth Distance (km) Brightness Sun altitude
Rises 17:23:56 0° 245° (WSW) 4,155 11.6 51.4°
Reaches altitude 10° 17:26:18 10° 243° (WSW) 3,438 11.3 51.3°
Maximum altitude 17:35:30 72° 160° (SSE) 2,020 11.1 51.0°
Drops below altitude 10° 17:50:41 10° 80° (E) 5,414 11.8 50.2°
Sets 17:55:27 0° 79° (E) 6,625 12.1 49.9°
